Location: Seattle
(47.6064°N, 122.3308°W)
Time: 13:59:33
(UTC-08:00)

S-56A Canister/Altair - Pass Details

Date: 09 October 2022
Orbit: 638 x 2494 km, 38.9° (Epoch: 02 December)

Event Time Altitude Azimuth Distance (km) Brightness Sun altitude
Rises 22:13:24 0° 204° (SSW) 6,131 12.0 -36.3°
Reaches altitude 10° 22:18:16 10° 194° (SSW) 5,148 11.5 -37.0°
Enters shadow 22:19:09 12° 192° (SSW) 4,982 11.4 -37.1°
